Theta_e
299 295 293 294 295 296 295 293 294 306 311 309 307 309 313 317 315 314 314 315 317 318 320 324 323 323 320 316 315 314 313 313 313 312 312 312 310 308 308 308 309 308 308 307
296 293 299 300 297 297 296 302 303 308 312 309 306 306 311 314 316 317 316 317 316 318 319 323 321 318 315 314 314 312 312 312 312 311 310 310 309 309 307 306 307 307 307 307
294 299 302 301 297 296 295 299 303 304 308 309 306 301 306 311 318 319 319 318 318 317 317 316 314 313 314 313 313 312 311 310 309 309 309 307 307 306 305 304 304 304 305 306
297 302 301 300 299 299 293 301 309 306 302 296 303 292 299 306 311 316 316 319 318 312 312 311 311 311 313 312 313 311 309 308 308 306 304 303 302 301 302 302 303 303 304 304
297 300 299 298 299 300 299 312 309 305 301 300 301 296 297 307 305 308 316 314 308 310 309 309 309 310 312 312 311 310 309 307 306 305 303 301 300 301 302 301 300 300 301 303
299 302 301 300 302 303 311 305 301 298 299 293 298 298 298 302 305 309 316 308 308 307 308 308 309 309 308 308 308 307 306 305 305 304 303 301 299 299 298 298 298 299 301 302
298 299 301 303 299 303 303 293 288 288 291 292 301 299 300 310 313 312 311 306 306 307 306 306 306 305 305 304 306 307 304 303 303 303 301 301 300 299 298 299 299 299 299 300
293 295 299 303 300 298 297 294 290 285 289 292 302 297 301 312 306 311 308 306 306 305 304 305 304 302 302 303 305 305 303 302 302 302 302 301 300 300 301 303 301 300 299 299
293 298 304 302 302 302 298 294 297 294 295 292 295 301 310 304 302 304 304 305 304 305 305 304 302 302 302 303 303 303 302 300 301 301 301 301 301 303 303 304 303 302 300 300
299 296 302 303 303 304 300 301 294 293 289 286 294 298 297 299 300 301 301 302 304 305 304 303 301 302 302 303 303 303 301 300 300 300 300 301 302 304 304 304 303 303 303 301
301 297 298 301 298 296 298 296 294 294 295 290 289 294 301 308 302 299 300 301 302 304 304 301 300 301 302 302 300 300 300 300 300 300 300 303 304 304 305 304 304 304 304 304
304 297 294 295 302 302 299 296 295 291 290 294 293 293 299 305 302 301 300 301 303 305 303 301 300 300 301 301 301 300 300 300 301 301 301 302 303 302 302 302 303 305 304 304
303 296 292 294 297 300 299 298 295 296 296 293 291 291 301 301 301 301 300 301 303 302 301 300 299 300 300 300 300 299 300 300 301 301 300 300 301 301 301 301 302 304 304 304
308 297 295 293 295 297 297 299 299 296 293 293 294 292 296 298 299 299 300 301 302 302 302 299 299 299 300 300 300 300 300 300 301 301 301 300 300 301 300 301 302 303 304 303
302 295 296 298 301 300 300 300 300 297 297 293 295 293 295 298 299 300 301 301 302 302 301 299 298 299 299 299 300 300 300 300 301 301 301 301 301 302 301 301 301 302 304 304
301 295 297 297 302 302 300 301 300 299 297 296 295 294 297 300 300 299 300 301 302 302 302 300 300 300 299 300 300 300 300 300 301 301 301 302 302 302 301 301 300 301 301 303
298 296 295 293 300 299 295 299 300 299 299 296 293 296 299 298 300 299 299 301 302 303 303 300 301 301 299 299 300 299 299 300 300 300 302 302 302 301 301 300 301 300 300 302
299 297 295 293 294 289 296 301 303 300 299 298 298 298 300 300 299 300 301 300 302 304 303 301 301 301 299 299 299 299 300 300 300 300 300 301 302 301 301 300 299 300 300 301
303 298 294 292 291 295 298 300 299 298 297 299 299 298 298 299 300 299 301 303 304 304 303 301 302 300 299 299 300 300 299 300 299 300 300 301 302 301 300 300 299 299 298 299
304 301 298 293 290 288 296 303 305 302 294 300 300 298 298 299 292 295 301 305 305 304 302 302 302 300 300 300 299 299 299 299 299 300 300 301 302 301 300 299 299 299 298 299
296 297 295 293 293 297 302 306 306 294 296 302 301 300 299 297 298 299 303 304 306 303 303 303 301 300 300 302 299 298 299 298 300 301 301 301 301 302 300 300 300 300 299 299
297 294 293 296 293 292 308 306 299 300 300 302 301 301 300 299 299 302 304 304 304 303 304 303 300 300 302 304 301 298 297 300 301 301 300 300 301 301 302 300 299 300 300 299
295 297 298 298 297 303 304 303 302 301 301 301 300 300 300 299 300 302 302 303 305 304 304 303 300 300 303 304 304 300 300 301 301 301 300 299 300 300 302 301 301 300 300 300
304 305 300 299 300 299 301 303 304 304 303 302 302 302 302 300 301 301 301 302 304 303 303 302 301 301 301 304 304 303 302 302 301 300 300 299 299 299 301 301 301 301 300 300
305 305 300 298 299 300 303 303 303 302 303 302 302 302 302 302 301 302 301 301 303 303 302 302 302 302 302 307 305 305 304 302 300 299 299 299 299 299 301 302 303 302 302 301
306 301 300 298 302 301 301 303 304 303 302 302 302 301 302 303 301 302 301 302 303 302 302 302 304 305 305 307 306 306 304 302 300 299 298 299 299 299 302 301 304 299 297 295
Wind_Speed
1 5 5 6 6 7 5 4 4 5 0 8 8 11 4 4 8 7 7 7 4 4 2 3 3 4 8 10 12 10 12 11 9 8 7 5 7 6 6 6 9 9 8 10
5 3 6 6 6 6 3 5 4 5 5 9 7 6 3 3 5 6 9 5 6 1 4 2 7 9 9 10 10 11 11 11 8 5 3 3 3 3 3 6 8 10 10 9
4 4 5 6 4 6 6 7 7 8 8 10 12 4 0 3 1 2 4 6 3 4 5 7 9 8 7 11 9 10 8 7 6 8 4 4 3 3 6 9 8 9 10 10
3 3 3 1 4 8 4 9 14 17 5 6 1 2 2 3 4 2 4 6 6 7 9 8 8 7 8 7 8 7 6 8 8 7 6 7 4 5 5 6 7 7 8 9
4 2 3 2 5 8 1 17 15 6 6 5 2 5 3 5 5 4 5 7 7 6 9 9 7 6 7 7 5 5 7 7 7 8 8 5 5 4 5 6 9 8 6 7
7 3 4 9 3 8 15 18 10 7 4 4 3 4 3 5 6 5 6 9 10 9 8 7 6 6 6 6 6 6 6 7 8 8 8 7 6 6 5 8 8 8 8 8
4 4 4 5 10 2 9 7 4 3 1 5 2 3 5 2 4 10 13 12 10 9 7 7 6 5 5 5 5 5 7 7 6 7 7 7 6 6 6 7 7 10 8 8
2 2 3 4 8 10 9 8 8 7 6 4 2 4 3 3 6 9 14 13 11 9 6 7 6 5 6 5 5 5 6 6 7 7 7 6 6 4 5 6 6 7 7 7
4 4 3 2 3 4 5 4 5 10 3 5 2 2 4 7 8 11 13 13 12 9 9 9 6 5 5 5 5 5 6 6 7 6 6 6 6 7 6 7 6 5 5 7
1 1 2 2 4 8 5 6 3 4 5 2 3 4 4 7 9 10 12 11 11 10 9 8 5 6 4 4 4 5 5 5 5 5 5 5 6 6 7 6 8 9 8 7
5 3 3 4 4 3 2 3 8 7 4 6 4 7 2 13 14 14 11 9 10 10 10 7 6 5 4 4 4 3 4 5 5 5 5 7 8 8 7 7 7 8 9 9
5 6 4 1 5 1 3 3 5 6 4 2 4 6 6 9 13 14 12 8 7 10 8 6 6 5 5 3 3 3 3 4 4 4 5 7 6 7 7 7 8 8 8 8
8 1 4 7 7 3 6 3 5 6 4 5 6 5 5 10 12 9 13 10 8 8 7 6 5 4 4 3 2 2 3 4 4 4 5 7 7 6 7 7 9 8 9 9
8 4 7 9 8 4 4 3 2 5 5 5 6 5 5 7 12 10 10 9 9 8 8 5 4 4 3 3 2 1 3 4 4 4 5 5 6 6 6 7 8 8 8 8
4 5 3 4 1 4 3 3 3 3 5 3 4 9 10 11 13 11 10 9 10 8 7 6 5 5 4 3 2 0 2 4 4 4 5 5 5 5 5 7 8 8 8 8
3 2 2 8 8 6 6 6 9 5 5 6 6 1 6 7 8 8 10 10 9 8 7 6 5 5 5 4 3 1 2 3 3 4 4 4 5 5 5 6 7 7 8 8
5 6 4 1 3 5 5 3 0 3 3 8 5 7 11 7 12 13 11 10 10 10 8 7 7 6 5 4 4 3 2 2 3 3 4 4 4 5 6 6 6 7 8 6
6 5 4 4 4 1 3 4 3 4 3 3 3 7 11 11 6 7 6 10 9 9 8 6 5 5 4 3 3 2 2 1 3 3 4 4 4 5 5 5 6 6 6 7
6 6 5 6 2 4 6 4 6 6 7 7 8 8 9 10 7 2 6 7 9 8 8 7 6 5 4 4 3 3 1 1 2 3 4 4 4 4 4 5 5 5 6 6
7 8 7 3 5 7 7 4 5 4 5 10 10 14 16 12 5 5 9 8 8 8 8 7 6 4 5 5 3 3 3 1 2 3 4 4 2 2 3 4 5 3 3 5
4 4 5 2 2 5 5 4 5 4 8 9 14 16 16 8 4 6 12 7 9 8 8 6 6 7 7 4 4 3 2 4 3 3 3 3 3 2 2 3 2 3 3 4
5 6 3 3 3 5 1 4 8 6 3 7 9 12 13 7 7 15 13 10 10 8 7 7 7 6 4 3 4 3 3 4 2 2 3 3 4 3 2 3 3 3 3 4
1 5 6 7 6 2 3 2 2 3 6 6 9 8 8 12 9 12 9 10 10 10 8 6 6 5 4 4 4 3 4 3 3 2 3 3 4 4 4 4 4 3 4 3
1 2 4 3 1 2 3 1 2 2 5 8 6 14 12 11 13 10 8 7 5 7 7 6 7 6 6 4 4 4 3 3 2 4 3 3 4 5 4 3 3 2 2 2
4 5 6 1 2 2 2 3 5 7 10 13 9 10 11 15 11 10 7 7 6 7 5 6 6 5 6 5 4 3 3 3 2 3 4 4 3 4 5 4 3 2 3 2
5 8 5 6 8 5 5 6 6 10 8 10 14 7 8 12 11 7 6 6 6 7 6 6 8 7 7 7 6 6 5 3 1 3 3 3 3 3 3 3 4 2 5 5
Wind_Direction
20 91 191 205 160 145 132 126 156 95 35 76 110 110 73 101 114 129 170 210 214 219 66 61 63 70 68 53 56 42 39 20 26 16 2 2 4 15 19 11 1 1 356 354
30 222 202 118 136 134 144 126 142 111 97 98 116 69 58 118 149 179 203 202 211 193 100 95 59 56 57 63 53 44 38 29 25 17 359 4 340 351 354 351 356 359 357 347
150 211 97 146 153 139 200 185 183 132 110 62 117 74 38 333 123 240 248 182 163 184 108 81 77 66 61 54 46 47 34 29 26 19 358 348 350 341 356 356 352 349 349 346
210 260 183 143 208 160 220 183 137 138 118 155 175 166 202 211 208 163 107 110 110 91 88 86 85 71 65 61 57 53 41 32 26 16 25 27 9 2 345 340 340 343 335 336
249 209 183 269 222 165 358 107 116 120 83 113 357 93 202 168 218 198 148 111 86 87 103 98 89 78 64 58 56 48 41 29 19 25 32 24 16 354 336 339 334 327 307 333
229 220 244 205 128 138 128 88 51 52 76 45 250 139 236 188 194 174 151 113 113 109 102 95 80 73 62 53 55 41 31 23 18 22 16 21 16 359 346 340 335 341 344 340
332 236 242 148 96 38 102 88 61 13 15 210 274 77 236 273 201 181 147 135 127 121 111 96 88 75 59 54 46 48 28 18 6 14 14 6 359 347 337 338 343 346 345 344
155 329 179 188 152 174 192 161 152 182 175 205 21 196 262 51 48 103 131 130 121 117 110 101 100 84 65 60 55 44 27 8 2 6 355 342 345 327 334 344 346 342 342 340
161 287 323 19 103 124 179 66 149 107 58 103 202 272 89 100 88 110 123 125 133 128 118 118 104 90 75 60 53 43 21 11 10 354 344 339 329 334 336 343 336 328 332 341
210 72 344 154 66 44 120 145 89 28 133 171 244 246 223 166 164 142 136 142 141 125 128 123 106 98 78 82 58 45 34 17 342 339 338 321 316 331 340 342 335 329 327 330
145 124 287 37 18 174 52 56 58 106 101 150 163 254 11 185 171 155 152 155 140 142 139 124 109 101 110 79 60 55 28 360 349 343 336 338 349 347 342 341 329 328 332 341
181 129 78 123 298 171 87 123 123 117 216 88 139 267 326 148 142 147 145 136 126 137 131 120 122 116 103 95 68 35 358 355 345 341 350 345 343 349 350 345 336 340 341 347
173 29 81 358 349 4 67 56 100 98 94 183 138 260 50 103 121 136 136 139 134 132 124 130 127 129 125 132 97 52 0 347 354 360 358 351 347 347 347 345 342 346 346 350
101 105 145 177 201 143 128 143 142 107 108 165 224 169 189 150 143 140 138 136 141 145 143 143 142 155 147 156 122 73 347 344 339 354 357 349 347 348 351 338 347 350 346 351
89 103 88 9 124 98 106 133 144 96 140 138 222 184 192 174 161 153 143 138 139 147 149 166 175 172 176 163 146 78 353 348 348 8 4 357 345 351 354 349 352 344 352 351
17 107 117 34 21 62 83 79 90 62 107 78 92 288 148 122 111 133 154 150 155 167 173 174 176 175 191 180 163 158 320 351 359 23 18 5 1 354 354 346 348 358 356 354
79 127 76 76 25 33 21 238 73 151 157 147 170 212 148 151 166 165 157 162 170 174 171 174 184 185 196 185 171 203 250 313 10 16 1 5 357 1 352 347 351 355 341 340
117 91 74 123 14 236 257 312 179 125 126 159 95 162 169 153 117 127 151 159 166 161 163 180 176 185 202 179 181 209 252 295 13 1 349 353 353 353 356 358 357 347 341 344
80 102 84 130 168 308 320 212 150 175 231 178 137 119 118 111 74 45 162 155 161 159 176 187 174 175 181 196 195 182 226 305 359 347 346 349 358 0 2 3 344 336 344 349
56 73 107 136 149 194 237 191 165 158 303 164 147 152 144 133 148 229 165 147 155 166 173 166 166 165 177 210 177 180 212 251 295 326 330 328 329 7 342 329 327 326 326 333
28 19 112 117 145 285 250 153 159 93 238 159 160 159 158 166 178 160 144 145 161 165 170 148 162 180 204 171 159 205 216 241 261 311 331 334 344 325 341 324 314 316 341 1
162 128 147 94 93 254 101 85 160 209 22 140 146 164 156 110 118 138 145 155 154 156 150 159 165 195 201 168 175 212 236 247 277 321 342 334 324 320 324 318 323 330 350 6
145 170 172 169 210 259 298 284 339 142 141 147 131 147 131 122 140 142 153 156 167 174 167 163 159 179 212 201 205 205 233 239 280 316 317 316 316 313 302 293 299 318 334 349
37 147 95 91 236 318 332 344 56 92 114 122 121 144 140 137 147 146 152 161 156 161 164 147 156 183 208 201 200 223 189 202 263 294 295 303 315 317 302 284 260 273 304 344
195 126 143 275 266 132 58 66 126 90 97 97 102 134 140 138 148 152 156 168 174 164 143 149 169 183 203 188 206 209 206 178 259 284 293 299 304 307 306 307 282 262 256 197
185 166 156 211 182 144 165 160 143 121 122 123 124 111 125 142 144 141 161 169 155 153 144 162 180 181 190 189 199 195 186 164 269 303 302 290 303 302 299 328 335 316 270 257